Visalia, CA

1:47 AM PDT on October 21, 2019 (GMT -0700)
Visalia Municipal

Weather History for KVIS - August, 2019

Change the Weather History Date:

Wednesday, August 28, 2019

  Actual Average Record
Temperature  
Mean Temperature 83 °F -  
Max Temperature 100 °F 91 °F 107 °F (1944)
Min Temperature 66 °F 61 °F 52 °F (1959)
Cooling Degree Days 18    
Growing Degree Days 33 (Base 50)    
Moisture  
Dew Point 58 °F    
Average Humidity 45    
Maximum Humidity 79    
Minimum Humidity 22    
Precipitation  
Precipitation 0.00 in - - ()
Sea Level Pressure  
Sea Level Pressure 29.85 in    
Wind  
Wind Speed 6 mph (West)    
Max Wind Speed 12 mph    
Max Gust Speed -    
Visibility 10 miles    
Events      
Averages and records for this station are not official NWS values.
T = Trace of Precipitation, MM = Missing Value Source: NWS Daily Summary

Daily Weather History Graph

Daily Weather History Graph

Search for Another Location

Airport or City:

Astronomy

Aug. 28, 2019 Rise Set
Actual Time 6:25 AM PDT 7:31 PM PDT
Civil Twilight 5:59 AM PDT 7:57 PM PDT
Nautical Twilight 5:27 AM PDT 8:29 PM PDT
Astronomical Twilight 4:54 AM PDT 9:01 PM PDT
Moon 4:09 AM PDT (8/28) 6:42 PM PDT (8/28)
Length of Visible Light 13h 58m
Length of Day
13h 05m
Waning Crescent, 4% of the Moon is Illuminated
Aug 28
Waning Crescent
Aug 30
New
Sep 5
First Quarter
Sep 13
Full
Sep 21
Last Quarter

Hourly Weather History & Observations

Time (PDT) Temp. Heat Index Dew Point Humidity Pressure Visibility Wind Dir Wind Speed Gust Speed Precip Events Conditions
12:56 AM 81.0 °F 81.0 °F 57.0 °F 44% 29.81 in 10.0 mi NW 9.2 mph - N/A   Clear
1:56 AM 77.0 °F - 59.0 °F 54% 29.80 in 10.0 mi WNW 4.6 mph - N/A   Clear
2:56 AM 73.0 °F - 61.0 °F 66% 29.80 in 10.0 mi Calm Calm - N/A   Clear
3:56 AM 70.0 °F - 61.0 °F 73% 29.81 in 10.0 mi WSW 3.5 mph - N/A   Clear
4:56 AM 71.1 °F - 59.0 °F 66% 29.81 in 10.0 mi WNW 3.5 mph - N/A   Clear
5:56 AM 70.0 °F - 57.9 °F 65% 29.83 in 10.0 mi Calm Calm - N/A   Clear
6:56 AM 66.9 °F - 60.1 °F 79% 29.85 in 10.0 mi SE 3.5 mph - N/A   Clear
7:56 AM 72.0 °F - 61.0 °F 68% 29.86 in 9.0 mi South 3.5 mph - N/A   Clear
8:56 AM 75.9 °F - 57.9 °F 54% 29.88 in 10.0 mi SSW 4.6 mph - N/A   Clear
9:56 AM 80.1 °F 80.2 °F 55.9 °F 43% 29.89 in 9.0 mi South 5.8 mph - N/A   Clear
10:56 AM 84.9 °F 84.4 °F 59.0 °F 41% 29.90 in 9.0 mi South 5.8 mph - N/A   Clear
11:56 AM 89.1 °F 88.8 °F 60.1 °F 38% 29.90 in 10.0 mi South 6.9 mph - N/A   Clear
12:56 PM 93.0 °F 91.7 °F 57.0 °F 30% 29.89 in 10.0 mi West 9.2 mph - N/A   Clear
1:56 PM 96.1 °F 96.4 °F 61.0 °F 31% 29.88 in 10.0 mi WNW 6.9 mph - N/A   Clear
2:56 PM 98.1 °F 96.1 °F 54.0 °F 23% 29.86 in 10.0 mi WNW 8.1 mph - N/A   Clear
3:56 PM 100.0 °F 98.3 °F 55.0 °F 22% 29.84 in 10.0 mi WNW 6.9 mph - N/A   Clear
4:56 PM 100.0 °F 98.3 °F 55.0 °F 22% 29.82 in 10.0 mi WNW 5.8 mph - N/A   Clear
5:56 PM 98.1 °F 96.4 °F 55.0 °F 24% 29.81 in 10.0 mi West 6.9 mph - N/A   Clear
6:56 PM 96.1 °F 95.2 °F 57.9 °F 28% 29.81 in 10.0 mi WNW 5.8 mph - N/A   Clear
7:56 PM 91.0 °F 89.2 °F 55.9 °F 30% 29.82 in 10.0 mi WNW 5.8 mph - N/A   Clear
8:56 PM 89.1 °F 87.3 °F 55.9 °F 32% 29.85 in 10.0 mi NW 11.5 mph - N/A   Clear
9:56 PM 84.0 °F 83.3 °F 57.0 °F 40% 29.87 in 10.0 mi NW 9.2 mph - N/A   Clear
10:56 PM 78.1 °F - 59.0 °F 52% 29.89 in 10.0 mi West 4.6 mph - N/A   Clear
11:56 PM 75.9 °F - 60.1 °F 58% 29.89 in 10.0 mi WNW 8.1 mph - N/A   Clear